When you browse on this site, cookies collect data to enhance your experience and personalize the content and advertising you see.
Visit our Privacy Policy to learn more. By continuing to use the site, you agree to this use of cookies and data.
  • In Hungary
  • List of Countries
  • For 7 days
  • Water Temperature
  • Satellite Maps
  • Weather Map
  • News
  • Weather Widgets
  • user-avatar
    Login

    Hourly Weather Kvasiv

    Today, 16 February, Saturday

    Time Temperature Precipitation Wind Pressure Humidity
    00:00 +3°C° 0 mm 2 mps 751 mmHg 93%
    01:00 +3°C° 0 mm 2 mps 751 mmHg 93%
    02:00 +3°C° 0 mm 2 mps 751 mmHg 94%
    03:00 +2°C° 0 mm 2 mps 750 mmHg 94%
    04:00 +2°C° 0 mm 2 mps 750 mmHg 95%
    05:00 +1°C° 0 mm 2 mps 750 mmHg 95%
    06:00 +1°C° 0 mm 2 mps 750 mmHg 96%
    07:00 +1°C° 0 mm 2 mps 750 mmHg 96%
    08:00 -1°C° 0 mm 2 mps 750 mmHg 96%
    09:00 +2°C° 0 mm 2 mps 750 mmHg 93%
    10:00 +2°C° 0 mm 3 mps 750 mmHg 90%
    11:00 +3°C° 0 mm 3 mps 750 mmHg 87%
    12:00 +4°C° 0 mm 3 mps 750 mmHg 84%
    13:00 +5°C° 0 mm 3 mps 750 mmHg 81%
    14:00 +5°C° 0 mm 3 mps 750 mmHg 78%
    15:00 +5°C° 0 mm 3 mps 750 mmHg 80%
    16:00 +5°C° 0 mm 3 mps 749 mmHg 82%
    17:00 +6°C° 0 mm 2 mps 749 mmHg 83%
    18:00 +5°C° 0 mm 2 mps 749 mmHg 86%
    19:00 +3°C° 0 mm 3 mps 749 mmHg 88%
    20:00 +3°C° 0 mm 3 mps 749 mmHg 90%
    21:00 +2°C° 0 mm 3 mps 748 mmHg 89%
    22:00 +2°C° 0 mm 3 mps 748 mmHg 89%
    23:00 +2°C° 0 mm 3 mps 748 mmHg 89%

    Tomorrow, 17 February, Sunday

    Time Temperature Precipitation Wind Pressure Humidity
    00:00 +2°C° 0 mm 3 mps 748 mmHg 89%
    01:00 +1°C° 0 mm 4 mps 747 mmHg 88%
    02:00 +1°C° 0 mm 4 mps 747 mmHg 88%
    03:00 0°C° 0 mm 4 mps 747 mmHg 88%
    04:00 0°C° 0 mm 4 mps 747 mmHg 87%
    05:00 0°C° 0 mm 4 mps 746 mmHg 87%
    06:00 0°C° 0 mm 4 mps 746 mmHg 86%
    07:00 0°C° 0 mm 5 mps 746 mmHg 86%
    08:00 0°C° 0 mm 5 mps 746 mmHg 86%
    09:00 +1°C° 0 mm 5 mps 746 mmHg 79%
    10:00 +2°C° 0 mm 6 mps 746 mmHg 72%
    11:00 +4°C° 0 mm 6 mps 746 mmHg 65%
    12:00 +5°C° 0 mm 6 mps 746 mmHg 62%
    13:00 +7°C° 0 mm 6 mps 746 mmHg 59%
    14:00 +8°C° 0 mm 6 mps 746 mmHg 57%
    15:00 +7°C° 0 mm 5 mps 746 mmHg 60%
    16:00 +7°C° 0 mm 4 mps 746 mmHg 63%
    17:00 +6°C° 0 mm 4 mps 746 mmHg 65%
    18:00 +5°C° 0 mm 3 mps 746 mmHg 70%
    19:00 +4°C° 0 mm 3 mps 746 mmHg 75%
    20:00 +3°C° 0 mm 3 mps 746 mmHg 80%
    21:00 +4°C° 0 mm 2 mps 746 mmHg 82%
    22:00 +4°C° 0 mm 2 mps 746 mmHg 85%
    23:00 +4°C° 0 mm 2 mps 746 mmHg 88%

    Day after tomorrow, 18 February, Monday

    Time Temperature Precipitation Wind Pressure Humidity
    00:00 +4°C° 0 mm 2 mps 746 mmHg 89%
    01:00 +3°C° 0 mm 2 mps 746 mmHg 91%
    02:00 +3°C° 0 mm 2 mps 747 mmHg 93%
    03:00 +3°C° 0 mm 2 mps 747 mmHg 94%
    04:00 +3°C° 0 mm 2 mps 746 mmHg 94%
    05:00 +3°C° 0 mm 2 mps 746 mmHg 95%
    06:00 +3°C° 0 mm 2 mps 747 mmHg 95%
    07:00 +4°C° 0 mm 1 mps 747 mmHg 94%
    08:00 +4°C° 0 mm 1 mps 747 mmHg 94%
    09:00 +5°C° 0 mm 1 mps 747 mmHg 90%
    10:00 +5°C° 0 mm 1 mps 747 mmHg 86%
    11:00 +6°C° 0 mm 1 mps 748 mmHg 82%
    12:00 +6°C° 0 mm 1 mps 748 mmHg 77%
    13:00 +6°C° 0 mm 0 mps 747 mmHg 72%
    14:00 +7°C° 0 mm 0 mps 747 mmHg 67%
    15:00 +6°C° 0 mm 0 mps 747 mmHg 67%
    16:00 +6°C° 0 mm 0 mps 747 mmHg 68%
    17:00 +6°C° 0 mm 0 mps 747 mmHg 69%
    18:00 +6°C° 0 mm 1 mps 747 mmHg 73%
    19:00 +5°C° 0 mm 1 mps 747 mmHg 76%
    20:00 +5°C° 0 mm 1 mps 747 mmHg 79%
    21:00 +3°C° 0 mm 2 mps 747 mmHg 82%
    22:00 +3°C° 0 mm 2 mps 747 mmHg 85%
    23:00 +2°C° 0 mm 2 mps 747 mmHg 88%

    19 February, Tuesday

    Time Temperature Precipitation Wind Pressure Humidity
    00:00 +2°C° 0 mm 2 mps 747 mmHg 89%
    01:00 +1°C° 0 mm 3 mps 747 mmHg 90%
    02:00 0°C° 0 mm 3 mps 747 mmHg 91%
    03:00 0°C° 0 mm 3 mps 747 mmHg 92%
    04:00 0°C° 0 mm 3 mps 746 mmHg 92%
    05:00 0°C° 0 mm 3 mps 746 mmHg 92%
    06:00 0°C° 0 mm 3 mps 746 mmHg 93%
    07:00 0°C° 0 mm 3 mps 746 mmHg 93%
    08:00 0°C° 0 mm 3 mps 746 mmHg 93%
    09:00 +1°C° 0 mm 3 mps 746 mmHg 88%
    10:00 +3°C° 0 mm 4 mps 746 mmHg 82%
    11:00 +4°C° 0 mm 4 mps 746 mmHg 77%
    12:00 +5°C° 0 mm 4 mps 745 mmHg 73%
    13:00 +6°C° 0 mm 4 mps 745 mmHg 69%
    14:00 +7°C° 0 mm 4 mps 744 mmHg 65%
    15:00 +8°C° 0 mm 3 mps 744 mmHg 67%
    16:00 +7°C° 0 mm 3 mps 743 mmHg 69%
    17:00 +7°C° 0 mm 3 mps 743 mmHg 71%
    18:00 +5°C° 0 mm 3 mps 743 mmHg 76%
    19:00 +4°C° 0 mm 3 mps 743 mmHg 81%
    20:00 +3°C° 0 mm 3 mps 743 mmHg 86%
    21:00 +3°C° 0 mm 3 mps 743 mmHg 84%
    22:00 +1°C° 0 mm 4 mps 743 mmHg 83%
    23:00 +1°C° 0 mm 4 mps 743 mmHg 82%

    20 February, Wednesday

    Time Temperature Precipitation Wind Pressure Humidity
    00:00 +1°C° 0 mm 4 mps 743 mmHg 83%
    01:00 +1°C° 0 mm 4 mps 743 mmHg 85%
    02:00 0°C° 0 mm 4 mps 743 mmHg 86%
    03:00 0°C° 0 mm 4 mps 742 mmHg 87%
    04:00 0°C° 0 mm 4 mps 742 mmHg 88%
    05:00 0°C° 0 mm 4 mps 742 mmHg 89%
    06:00 0°C° 0 mm 4 mps 743 mmHg 90%
    07:00 -1°C° 0 mm 4 mps 743 mmHg 91%
    08:00 -1°C° 0 mm 4 mps 743 mmHg 91%
    09:00 0°C° 0.1 mm 4 mps 743 mmHg 90%
    10:00 +1°C° 0.1 mm 4 mps 744 mmHg 88%
    11:00 +2°C° 0.1 mm 5 mps 744 mmHg 86%
    12:00 +3°C° 0 mm 5 mps 744 mmHg 83%
    13:00 +3°C° 0 mm 5 mps 744 mmHg 80%
    14:00 +5°C° 0 mm 5 mps 744 mmHg 77%
    15:00 +5°C° 0 mm 5 mps 744 mmHg 78%
    16:00 +5°C° 0 mm 5 mps 744 mmHg 78%
    17:00 +3°C° 0 mm 5 mps 745 mmHg 79%
    18:00 +4°C° 0 mm 4 mps 745 mmHg 78%
    19:00 +4°C° 0 mm 4 mps 745 mmHg 78%
    20:00 +3°C° 0 mm 4 mps 745 mmHg 77%
    21:00 +3°C° 0 mm 4 mps 745 mmHg 79%
    22:00 +1°C° 0 mm 4 mps 745 mmHg 82%
    23:00 +1°C° 0 mm 4 mps 745 mmHg 84%

    21 February, Thursday

    Time Temperature Precipitation Wind Pressure Humidity
    00:00 0°C° 0 mm 4 mps 745 mmHg 85%
    01:00 0°C° 0 mm 4 mps 745 mmHg 86%
    02:00 0°C° 0 mm 4 mps 745 mmHg 86%
    03:00 0°C° 0 mm 4 mps 745 mmHg 87%
    04:00 0°C° 0 mm 4 mps 745 mmHg 87%
    05:00 0°C° 0 mm 4 mps 745 mmHg 88%
    06:00 0°C° 0 mm 4 mps 745 mmHg 88%
    07:00 0°C° 0 mm 4 mps 745 mmHg 89%
    08:00 0°C° 0 mm 4 mps 745 mmHg 89%
    09:00 +1°C° 0 mm 4 mps 745 mmHg 85%
    10:00 +2°C° 0 mm 5 mps 745 mmHg 81%
    11:00 +3°C° 0 mm 5 mps 745 mmHg 78%
    12:00 +5°C° 0 mm 5 mps 745 mmHg 75%
    13:00 +6°C° 0 mm 5 mps 745 mmHg 73%
    14:00 +6°C° 0 mm 5 mps 745 mmHg 70%
    15:00 +6°C° 0.1 mm 5 mps 745 mmHg 75%
    16:00 +5°C° 0.1 mm 4 mps 745 mmHg 79%
    17:00 +5°C° 0.1 mm 4 mps 745 mmHg 84%
    18:00 +4°C° 0.1 mm 4 mps 745 mmHg 86%
    19:00 +4°C° 0.1 mm 3 mps 745 mmHg 88%
    20:00 +4°C° 0.1 mm 3 mps 745 mmHg 90%
    21:00 +4°C° 0.4 mm 3 mps 745 mmHg 91%
    22:00 +4°C° 0.4 mm 3 mps 745 mmHg 93%
    23:00 +4°C° 0.4 mm 3 mps 745 mmHg 94%
    Show more